Regional Weather Roundup
Issued by NWS

Home | Current Version | Previous Version | Text Only | Print | Product List | Glossary On
Versions: 1 2 3 4 5 6 7 8 9 10 11 12 13 14 15 16 17 18 19 20 21 22 23 24 25 26 27 28 29 30 31 32 33 34 35 36 37 38 39 40 41 42 43 44 45 46 47 48 49 50
000
ASUS44 KOUN 020610
RWROK

WEATHER ROUNDUP FOR OKLAHOMA
NATIONAL WEATHER SERVICE NORMAN OK
100 AM CDT MON MAY 02 2016

NOTE: "FAIR" INDICATES FEW OR NO CLOUDS BELOW 12,000 FEET WITH NO
      SIGNIFICANT WEATHER AND/OR OBSTRUCTIONS TO VISIBILITY.

OKZ001>007-009>012-014-015-017-020700-
NORTHWEST OKLAHOMA AND THE PANHANDLE

CITY           SKY/WX    TMP DP  RH WIND       PRES   REMARKS
GAGE           CLOUDY    46  42  86 N9        30.23S
6HR MIN TEMP:  46; 6HR MAX TEMP:  49;

GUYMON         MOCLDY    42  38  85 NW7       30.26S
ENID/WOODRING  CLOUDY    50  45  81 N9        30.17F
$$

OKZ016-021>023-033>039-044-045-020700-
SOUTHWEST OKLAHOMA

CITY           SKY/WX    TMP DP  RH WIND       PRES   REMARKS
LAWTON/REGL    CLOUDY    53  45  74 N9        30.18R
6HR MIN TEMP:  53; 6HR MAX TEMP:  56; 6HR PCP:  0.04;

LAWTON/FT SILL CLOUDY    52  45  76 N10       30.16S
FREDERICK      CLOUDY    53  45  74 N14       30.17S
CLINTON        CLEAR     46  42  86 N9        30.21F
HOBART         CLEAR     47  43  86 N8        30.21R
ALTUS AFB      CLOUDY    50  42  73 NW7       30.21R
$$

OKZ018>020-024>031-020700-
CENTRAL OKLAHOMA

CITY           SKY/WX    TMP DP  RH WIND       PRES   REMARKS
OKLAHOMA CITY  PTCLDY    51  44  77 N14       30.16F
6HR MIN TEMP:  51; 6HR MAX TEMP:  58; 6HR PCP: TRACE;

OKC/WILEY POST PTCLDY    50  44  80 N12       30.17F
OKC/TINKER AFB PTCLDY    50  44  80 N12       30.15S
STILLWATER     CLOUDY    50  45  83 NW9       30.17R
GUTHRIE        CLOUDY    50  45  83 NW6       30.17S
$$

OKZ008-013-054>072-020700-
NORTHEAST OKLAHOMA

CITY           SKY/WX    TMP DP  RH WIND       PRES   REMARKS
TULSA          MOCLDY    54  48  80 NW9       30.11S
6HR MIN TEMP:  54; 6HR MAX TEMP:  64; 6HR PCP: TRACE;

TULSA/JONES    CLOUDY    55  46  71 N6        30.14R
PONCA CITY     CLOUDY    51  45  79 NW8       30.17S
BARTLESVILLE   MOCLDY    53  45  74 VRB5      30.15S
MUSKOGEE       LGT RAIN  54  52  93 NW6       30.14R
$$

OKZ032-040>043-046>053-073>077-020700-
SOUTH CENTRAL/SOUTHEAST OKLAHOMA

CITY           SKY/WX    TMP DP  RH WIND       PRES   REMARKS
ARDMORE/DWNTWN   N/A     54  50  87 CALM      30.15R
MCALESTER      LGT RAIN  57  51  80 N12       30.14R
$$





USA.gov is the U.S. government's official web portal to all federal, state and local government web resources and services.